DW8546 Weather Reports


Display with metric or nautical units.
time (UTC)temp
F
wind
direction
speed
MPH
gust
MPH
rain 1hr
in
rain 24hr
in
rain mn
in
humidity
%
barometer
mb
20180222045247 23 41 0.0 3.0 0.00 0.00 0.00 65 955.9
20180222043750 23 234 0.0 4.0 0.00 0.00 0.00 65 955.7
20180222042246 23 43 0.0 6.0 0.00 0.00 0.00 64 955.7
20180222040747 23 33 2.0 7.0 0.00 0.00 0.00 65 955.5
20180222035245 23 347 0.0 0.0 0.00 0.00 0.00 67 955.5
20180222033746 23 347 0.0 0.0 0.00 0.00 0.00 66 955.6
20180222032243 23 38 0.0 4.0 0.00 0.00 0.00 66 955.7
20180222030747 23 288 0.0 1.0 0.00 0.00 0.00 68 955.6
20180222025243 23 257 0.0 1.0 0.00 0.00 0.00 67 955.8
20180222023743 23 17 0.0 0.0 0.00 0.00 0.00 66 955.7
20180222022344 23 18 0.0 2.0 0.00 0.00 0.00 65 955.6
20180222020742 24 56 1.0 3.0 0.00 0.00 0.00 63 955.6
20180222015241 25 30 0.0 3.0 0.00 0.00 0.00 61 955.6
20180222013741 25 309 1.0 4.0 0.00 0.00 0.00 59 955.5
20180222012242 25 317 1.0 2.0 0.00 0.00 0.00 59 955.5
20180222010739 26 330 1.0 2.0 0.00 0.00 0.00 57 955.7
20180222005236 26 349 1.0 2.0 0.00 0.00 0.00 55 955.7
20180222003735 27 2 0.0 2.0 0.00 0.00 0.00 52 955.9
20180222002235 27 264 0.0 0.0 0.00 0.00 0.00 49 955.9
20180222000734 28 264 0.0 0.0 0.00 0.00 0.00 49 956.1
20180221235228 28 264 0.0 0.0 0.00 0.00 0.00 48 956.5
20180221233726 28 262 0.0 1.0 0.00 0.00 0.00 50 956.6
20180221232222 27 257 0.0 3.0 0.00 0.00 0.00 52 956.7
20180221230721 26 305 0.0 2.0 0.00 0.00 0.00 51 956.9
20180221225216 26 296 0.0 2.0 0.00 0.00 0.00 55 957.3
20180221223714 26 296 0.0 1.0 0.00 0.00 0.00 54 957.2
20180221222212 26 286 0.0 1.0 0.00 0.00 0.00 54 957.4
20180221220714 26 277 0.0 1.0 0.00 0.00 0.00 56 957.6
20180221215208 25 301 0.0 3.0 0.00 0.00 0.00 56 957.9
20180221213704 25 309 1.0 3.0 0.00 0.00 0.00 57 958.2
20180221212202 25 282 0.0 2.0 0.00 0.00 0.00 57 958.3
20180221210658 25 290 0.0 3.0 0.00 0.00 0.00 58 958.6
20180221205156 25 84 0.0 2.0 0.00 0.00 0.00 56 958.8
20180221203653 25 249 0.0 2.0 0.00 0.00 0.00 57 959.0
20180221202150 25 238 0.0 1.0 0.00 0.00 0.00 57 959.3
20180221200647 24 129 0.0 2.0 0.00 0.00 0.00 57 959.4
20180221195141 25 49 0.0 1.0 0.00 0.00 0.00 62 959.7
20180221193639 24 286 0.0 2.0 0.00 0.00 0.00 63 959.9
20180221192136 23 105 1.0 2.0 0.00 0.00 0.00 65 960.0
20180221190635 23 258 0.0 2.0 0.00 0.00 0.00 67 960.3
20180221185128 21 7 0.0 3.0 0.00 0.00 0.00 69 960.5
20180221183626 20 340 2.0 5.0 0.00 0.00 0.00 69 960.8
20180221182124 20 46 2.0 6.0 0.00 0.00 0.00 71 961.2
20180221180623 19 331 1.0 5.0 0.00 0.00 0.00 74 961.4
20180221175119 19 298 3.0 6.0 0.00 0.00 0.00 73 961.5
20180221173617 19 354 2.0 6.0 0.00 0.00 0.00 75 961.7
20180221172116 18 342 1.0 5.0 0.00 0.00 0.00 76 961.8
20180221170612 17 342 4.0 9.0 0.00 0.00 0.00 76 962.1
20180221165115 16 346 6.0 11.0 0.00 0.00 0.00 76 962.2
20180221163612 15 338 4.0 9.0 0.00 0.00 0.00 79 962.3
20180221162110 15 354 5.0 8.0 0.00 0.00 0.00 79 962.3
20180221160614 15 327 5.0 9.0 0.00 0.00 0.00 78 962.5
20180221155107 15 320 5.0 8.0 0.00 0.00 0.00 80 962.7
20180221153605 14 2 0.0 0.0 0.00 0.00 0.00 81 962.7
20180221152104 14 257 0.0 0.0 0.00 0.00 0.00 82 962.4
20180221150606 14 257 0.0 0.0 0.00 0.00 0.00 82 962.4
20180221145104 14 308 0.0 4.0 0.00 0.00 0.00 81 962.5
20180221143604 14 332 2.0 8.0 0.00 0.00 0.00 81 962.4
20180221142058 14 328 1.0 6.0 0.00 0.00 0.00 83 962.7
20180221140558 14 284 0.0 1.0 0.00 0.00 0.00 83 962.7
20180221135053 15 14 0.0 5.0 0.00 0.00 0.00 81 962.6
20180221133555 15 323 0.0 4.0 0.00 0.00 0.00 82 962.5
20180221132052 15 318 0.0 7.0 0.00 0.00 0.00 80 962.5
20180221130552 15 358 4.0 7.0 0.00 0.00 0.00 82 962.5
20180221125044 14 349 0.0 1.0 0.00 0.00 0.00 82 962.4
20180221123542 15 292 0.0 1.0 0.00 0.00 0.00 81 962.5
20180221122041 15 248 0.0 0.0 0.00 0.00 0.00 80 962.3
20180221120544 15 248 0.0 1.0 0.00 0.00 0.00 79 962.3
20180221115138 15 245 0.0 1.0 0.00 0.00 0.00 79 962.2
20180221113536 16 255 0.0 1.0 0.00 0.00 0.00 78 962.3
20180221112035 16 233 0.0 0.0 0.00 0.00 0.00 78 962.5
20180221110532 16 248 0.0 1.0 0.00 0.00 0.00 77 962.5
20180221105030 17 200 0.0 0.0 0.00 0.00 0.00 75 962.7
20180221103526 18 135 0.0 0.0 0.00 0.00 0.00 71 962.7
20180221102023 19 53 0.0 1.0 0.00 0.00 0.00 70 962.6
20180221100520 20 39 0.0 2.0 0.00 0.00 0.00 70 962.7
20180221095021 20 41 0.0 1.0 0.00 0.00 0.00 67 962.8
20180221093518 21 295 0.0 2.0 0.00 0.00 0.00 65 962.7
20180221092012 21 195 0.0 3.0 0.00 0.00 0.00 64 962.5
20180221090511 21 41 1.0 3.0 0.00 0.00 0.00 67 962.6
20180221085006 22 25 0.0 1.0 0.00 0.00 0.00 73 962.8
20180221083505 22 19 0.0 1.0 0.00 0.00 0.00 79 962.6
20180221082002 22 115 0.0 0.0 0.00 0.00 0.00 69 962.5
20180221080459 22 115 0.0 1.0 0.00 0.00 0.00 69 962.3
20180221074959 22 142 0.0 0.0 0.00 0.00 0.00 68 962.0
20180221073455 22 235 0.0 1.0 0.00 0.00 0.00 68 961.9
20180221071956 22 164 0.0 0.0 0.00 0.00 0.00 70 961.9
20180221070454 22 193 0.0 1.0 0.00 0.00 0.00 76 961.9
20180221064952 23 335 0.0 0.0 0.00 0.00 0.00 78 961.8
20180221063452 23 335 0.0 2.0 0.00 0.00 0.00 75 961.6
20180221061950 23 61 0.0 2.0 0.00 0.00 0.00 74 961.5
20180221060448 23 94 0.0 1.0 0.00 0.00 0.00 69 961.2
20180221054947 23 36 0.0 1.0 0.00 0.00 0.00 74 961.1
20180221053448 23 47 0.0 0.0 0.00 0.00 0.00 71 960.9
20180221051943 23 53 0.0 4.0 0.00 0.00 0.00 74 960.7
20180221050543 23 63 1.0 7.0 0.00 0.00 0.00 62 960.7